Location: Newark
(54.3386°S, 169.8415°W)
Time: 15:29:55
(UTC+00:00)

Vanguard 2 - Visible Passes

Search period start: 17 October 2019 00:00
Search period end: 27 October 2019 00:00
Orbit: 554 x 2937 km, 32.9° (Epoch: 16 October)

Date Brightness Start Highest point End Pass type
(mag) Time Alt. Az. Time Alt. Az. Time Alt. Az.
23 Oct 11.3 14:34:10 10° N 14:38:54 12° NNE 14:43:05 10° NE visible
24 Oct 11.1 14:48:59 10° NNW 14:56:24 16° NNE 15:02:29 10° NE visible
25 Oct 11.0 15:04:53 10° NNW 15:13:55 19° NNE 15:21:02 10° NE visible
26 Oct 11.3 13:16:19 10° N 13:22:43 14° NNE 13:28:24 10° NE visible
